Anoka County, MN

3:36 AM CST on November 20, 2017 (GMT -0600)
Anoka County / Blaine Airport

Weather History for KANE - March, 2014

Change the Weather History Date:

Thursday, March 6, 2014

  Actual Average Record
Temperature  
Mean Temperature 20 °F -  
Max Temperature 26 °F 28 °F 64 °F (2017)
Min Temperature 15 °F 13 °F 1 °F (2008)
Degree Days  
Heating Degree Days 44    
Moisture  
Dew Point 14 °F    
Average Humidity 78    
Maximum Humidity 93    
Minimum Humidity 68    
Precipitation  
Precipitation 0.00 in - - ()
Sea Level Pressure  
Sea Level Pressure 30.09 in    
Wind  
Wind Speed 11 mph (SSE)    
Max Wind Speed 23 mph    
Max Gust Speed 32 mph    
Visibility 10 miles    
Events      
Averages and records for this station are not official NWS values.
T = Trace of Precipitation, MM = Missing Value Source: NWS Daily Summary

Daily Weather History Graph

Daily Weather History Graph

Search for Another Location

Airport or City:

Trip Planner

Search our weather history database for the weather conditions in past years. The results will help you decide how hot, cold, wet, or windy it might be!

Date:

Astronomy

Mar. 06, 2014 Rise Set
Actual Time 6:41 AM CST 6:06 PM CST
Civil Twilight 6:12 AM CST 6:36 PM CST
Nautical Twilight 5:38 AM CST 7:10 PM CST
Astronomical Twilight 5:04 AM CST 7:44 PM CST
Moon 9:34 AM CST (3/6) No Moon Set
Length of Visible Light 12h 23m
Length of Day
11h 25m
Waxing Crescent, 32% of the Moon is Illuminated
Mar 6
Waxing Crescent
Mar 8
First Quarter
Mar 16
Full
Mar 23
Last Quarter
Mar 30
New

Hourly Weather History & Observations

Time (CST) Temp. Windchill Dew Point Humidity Pressure Visibility Wind Dir Wind Speed Gust Speed Precip Events Conditions
12:16 AM 15.8 °F 5.1 °F 8.6 °F 73% 30.32 in 10.0 mi SE 8.1 mph - N/A   Clear
12:35 AM 15.8 °F 5.1 °F 6.8 °F 68% 30.32 in 10.0 mi SSE 8.1 mph - N/A   Clear
12:55 AM 15.8 °F 2.7 °F 8.6 °F 73% 30.31 in 10.0 mi SSE 11.5 mph - N/A   Clear
1:15 AM 15.8 °F 2.1 °F 8.6 °F 73% 30.30 in 10.0 mi SSE 12.7 mph - N/A   Clear
1:35 AM 15.8 °F 2.1 °F 8.6 °F 73% 30.30 in 10.0 mi South 12.7 mph - N/A   Clear
1:55 AM 15.8 °F 2.7 °F 8.6 °F 73% 30.30 in 10.0 mi SSE 11.5 mph - N/A   Clear
2:15 AM 15.8 °F 2.7 °F 8.6 °F 73% 30.29 in 10.0 mi SSE 11.5 mph - N/A   Clear
2:35 AM 15.8 °F 4.2 °F 8.6 °F 73% 30.29 in 10.0 mi SSE 9.2 mph - N/A   Scattered Clouds
2:55 AM 15.8 °F 2.1 °F 8.6 °F 73% 30.28 in 10.0 mi SSE 12.7 mph - N/A   Clear
3:15 AM 15.8 °F 3.4 °F 8.6 °F 73% 30.26 in 10.0 mi SSE 10.4 mph - N/A   Clear
3:35 AM 15.8 °F 3.4 °F 8.6 °F 73% 30.27 in 10.0 mi SSE 10.4 mph - N/A   Mostly Cloudy
3:55 AM 15.8 °F 2.7 °F 8.6 °F 73% 30.25 in 10.0 mi SSE 11.5 mph - N/A   Overcast
4:15 AM 15.8 °F 4.2 °F 8.6 °F 73% 30.25 in 10.0 mi SSE 9.2 mph - N/A   Overcast
4:35 AM 15.8 °F 2.7 °F 8.6 °F 73% 30.24 in 10.0 mi SSE 11.5 mph - N/A   Overcast
4:55 AM 15.8 °F 2.7 °F 8.6 °F 73% 30.24 in 10.0 mi SSE 11.5 mph - N/A   Overcast
5:15 AM 15.8 °F 2.1 °F 8.6 °F 73% 30.23 in 10.0 mi SSE 12.7 mph - N/A   Overcast
5:35 AM 15.8 °F 2.1 °F 8.6 °F 73% 30.21 in 10.0 mi SSE 12.7 mph - N/A   Scattered Clouds
5:55 AM 15.8 °F 2.1 °F 8.6 °F 73% 30.20 in 10.0 mi SSE 12.7 mph 19.6 mph N/A   Scattered Clouds
6:16 AM 15.8 °F 2.7 °F 8.6 °F 73% 30.19 in 10.0 mi SSE 11.5 mph - N/A   Scattered Clouds
6:35 AM 15.8 °F 1.4 °F 8.6 °F 73% 30.17 in 10.0 mi SSE 13.8 mph 19.6 mph N/A   Clear
6:55 AM 15.8 °F 2.7 °F 10.4 °F 79% 30.17 in 10.0 mi SSE 11.5 mph - N/A   Clear
7:45 AM 15.8 °F 2.7 °F 10.4 °F 79% 30.15 in 10.0 mi SE 11.5 mph 17.3 mph N/A   Overcast
8:50 AM 19.4 °F 7.2 °F 12.2 °F 74% 30.15 in 10.0 mi South 11.5 mph 17.3 mph N/A   Overcast
9:45 AM 21.2 °F - 15.8 °F 80% 30.14 in 10.0 mi North - - N/A   Overcast
10:45 AM 24.8 °F 11.5 °F 17.6 °F 74% 30.09 in 10.0 mi SSE 17.3 mph - N/A   Overcast
11:45 AM 24.8 °F 11.1 °F 19.4 °F 80% 30.05 in 10.0 mi SE 18.4 mph 25.3 mph N/A   Overcast
1:45 PM 26.6 °F 12.0 °F 21.2 °F 80% 29.99 in 10.0 mi South 23.0 mph 29.9 mph N/A   Overcast
2:45 PM 26.6 °F 12.0 °F 21.2 °F 80% 29.96 in 7.0 mi South 23.0 mph 29.9 mph N/A   Overcast
4:45 PM 26.6 °F 12.0 °F 24.8 °F 93% 29.90 in 5.0 mi South 23.0 mph 32.2 mph N/A   Overcast
5:45 PM 26.6 °F 13.1 °F 24.8 °F 93% 29.91 in 7.0 mi South 19.6 mph 28.8 mph N/A   Overcast
6:45 PM 26.6 °F 15.2 °F 23.0 °F 86% 29.89 in - South 13.8 mph 20.7 mph N/A   Overcast
7:45 PM 26.6 °F 15.2 °F 21.2 °F 80% 29.88 in 10.0 mi SSE 13.8 mph 20.7 mph N/A   Overcast
8:45 PM 24.8 °F 14.6 °F 21.2 °F 86% 29.87 in 10.0 mi SSE 10.4 mph 17.3 mph N/A   Overcast
9:15 PM 24.8 °F 14.0 °F 21.2 °F 86% 29.86 in 10.0 mi SSE 11.5 mph - N/A   Scattered Clouds
9:35 PM 24.8 °F 15.3 °F 21.2 °F 86% 29.85 in 10.0 mi SSE 9.2 mph - N/A   Clear
9:55 PM 24.8 °F 14.0 °F 21.2 °F 86% 29.85 in 10.0 mi SSE 11.5 mph - N/A   Clear
10:15 PM 24.8 °F 16.1 °F 21.2 °F 86% 29.85 in 10.0 mi SSE 8.1 mph - N/A   Clear
10:35 PM 24.8 °F 16.9 °F 21.2 °F 86% 29.84 in 10.0 mi SE 6.9 mph - N/A   Clear
10:55 PM 24.8 °F 16.1 °F 21.2 °F 86% 29.83 in 10.0 mi SSE 8.1 mph - N/A   Clear
11:15 PM 24.8 °F 14.6 °F 21.2 °F 86% 29.81 in 10.0 mi SE 10.4 mph - N/A   Clear
11:36 PM 24.8 °F 15.3 °F 21.2 °F 86% 29.81 in 10.0 mi SE 9.2 mph - N/A   Clear
11:55 PM 24.8 °F 16.9 °F 21.2 °F 86% 29.80 in 10.0 mi SE 6.9 mph - N/A   Clear